This is the latest recevied weather packets stored in our database for station/object SP8NFH-13. If no packets are shown the sender has not sent any weather packets the latest 1 day(s).
| Time | Temp. | Humidity | Pressure | Rain* | Wind** | Luminosity | Snow |
|---|---|---|---|---|---|---|---|
| 1778094493 | 17.78° C | 46% | 1010.6 hPa | - | - | - | - |
| 1778094373 | 17.78° C | 46% | 1010.6 hPa | - | - | - | - |
| 1778094133 | 17.22° C | 46% | 1010.8 hPa | - | - | - | - |
| 1778093653 | 17.78° C | 45% | 1010.8 hPa | - | - | - | - |
| 1778093293 | 17.78° C | 45% | 1010.8 hPa | - | - | - | - |
| 1778092813 | 17.78° C | 44% | 1010.9 hPa | - | - | - | - |
| 1778092213 | 18.33° C | 43% | 1010.7 hPa | - | - | - | - |
| 1778092093 | 18.33° C | 43% | 1011 hPa | - | - | - | - |
| 1778091973 | 18.33° C | 42% | 1010.8 hPa | - | - | - | - |
| 1778091853 | 18.33° C | 42% | 1010.8 hPa | - | - | - | - |
| 1778091733 | 18.89° C | 41% | 1010.6 hPa | - | - | - | - |
| 1778091613 | 18.89° C | 41% | 1010.6 hPa | - | - | - | - |
| 1778091373 | 18.89° C | 41% | 1011.5 hPa | - | - | - | - |
| 1778091253 | 20° C | 39% | 1010.1 hPa | - | - | - | - |
| 1778091133 | 19.44° C | 40% | 1009.6 hPa | - | - | - | - |
| 1778091013 | 19.44° C | 40% | 1010.5 hPa | - | - | - | - |
| 1778090893 | 19.44° C | 40% | 1010.4 hPa | - | - | - | - |
| 1778090773 | 19.44° C | 40% | 1009.9 hPa | - | - | - | - |
| 1778090653 | 19.44° C | 40% | 1010.9 hPa | - | - | - | - |
| 1778090533 | 19.44° C | 39% | 1011.1 hPa | - | - | - | - |
| 1778090053 | 20.56° C | 37% | 1010.1 hPa | - | - | - | - |
| 1778089933 | 20.56° C | 37% | 1009.6 hPa | - | - | - | - |
| 1778089573 | 20.56° C | 36% | 1009.7 hPa | - | - | - | - |
| 1778089213 | 20.56° C | 36% | 1010.6 hPa | - | - | - | - |
| 1778089093 | 21.11° C | 35% | 1010.9 hPa | - | - | - | - |
* Rain since midnight (hover to see other rain measurements)
** Current wind speed in m/s (hover to see current wind gust speed)